map of LAO home
Great Circle Mapper logo
LAO - Airport
Location
City:  Laoag, Luzon Island, Philippines
Name:Laoag International Airport
ICAO:RPLI
IATA:LAO

Details
Type:Airport (Aerodrome, Airfield)
Use:Public/Civil, International (customs port of entry)
Latitude:1810'41"N (18.178092)
Longitude:12031'53"E (120.531522)
Datum:WGS 1984
Elevation:25 ft (8 m)
Variation:2.73W (WMM2015 magnetic declination)
-0.09 annual change
Runways:1
Longest:9120 × 148 ft (2780 × 45 m), paved

Time
Time Zone:UTC+8
Local Time:

Weather
METAR:RPLI 250600Z 25010KT 9999 FEW019 33/28 Q1008 NOSIG RMK A2977
TAF:RPLI 250500Z 2506/2606 22006KT 9999 FEW019
TEMPO 2506/2512 27010KT 9000 -TSRA FEW018CB SCT019 BKN290

Related Locations
Nearby:
Farthest:SLSQ: 12440 mi / 20020 km
Santiago de Chiquitos [Santiago de Chiquitos Airport], S, BO

Find:

   beyond  
but within

Other Information
Maps:
NOTAMs:
Links:
Sources:

  
flag of Philippines   

Sectional Chart

Flight Planning
at skyvector.com

Satellite Image

Google Maps Satellite view

 

Copyright © 2004-2016 Karl L. Swartz. All rights reserved.
The Great Circle Mapper name and logo are trademarks of the Great Circle Mapper.
All other trademarks mentioned herein belong to their respective owners.
Please see credits for attibutions and further copyright information.

  Follow gcmap on Facebook Follow gcmap on Twitter Follow gcmap on Google+ GCmap on LinkedIn

hCard Microformat

Geo Microformat